When you browse on this site, cookies collect data to enhance your experience and personalize the content and advertising you see.
Visit our Privacy Policy to learn more. By continuing to use the site, you agree to this use of cookies and data.
  • în România
  • Lista ţărilor
  • Pe 7 zile
  • Temperatura apei
  • Hartă satelitară
  • Meteo pe hartă
  • Widget-uri
  • user-avatar
    Intrare

    Meteo pe oră la Pobegaylovka

    Astăzi, 16 Ianuarie, Miercuri

    Timp Temperatura Precipitaţii Vânt Presiune Umiditate
    00:00 -1°C° 0 mm 3 m/s 721 mmHg 81%
    01:00 +1°C° 0 mm 2 m/s 720 mmHg 78%
    02:00 +1°C° 0 mm 2 m/s 720 mmHg 75%
    03:00 +1°C° 0 mm 0 m/s 720 mmHg 79%
    04:00 +2°C° 0 mm 1 m/s 720 mmHg 75%
    05:00 +3°C° 0 mm 1 m/s 720 mmHg 71%
    06:00 +4°C° 0 mm 1 m/s 720 mmHg 67%
    07:00 +4°C° 0 mm 1 m/s 720 mmHg 64%
    08:00 +5°C° 0 mm 1 m/s 720 mmHg 60%
    09:00 +6°C° 0 mm 1 m/s 719 mmHg 56%
    10:00 +6°C° 0 mm 2 m/s 720 mmHg 56%
    11:00 +7°C° 0 mm 3 m/s 721 mmHg 56%
    12:00 +7°C° 0 mm 5 m/s 721 mmHg 56%
    13:00 +4°C° 0 mm 6 m/s 722 mmHg 64%
    14:00 +3°C° 0 mm 7 m/s 723 mmHg 72%
    15:00 0°C° 0 mm 8 m/s 724 mmHg 79%
    16:00 -1°C° 0 mm 7 m/s 724 mmHg 80%
    17:00 -2°C° 0 mm 6 m/s 725 mmHg 80%
    18:00 -2°C° 0 mm 5 m/s 726 mmHg 80%
    19:00 -2°C° 0.1 mm 5 m/s 726 mmHg 79%
    20:00 -2°C° 0.1 mm 5 m/s 727 mmHg 78%
    21:00 -2°C° 0.1 mm 4 m/s 727 mmHg 77%
    22:00 -3°C° 0 mm 4 m/s 727 mmHg 76%
    23:00 -2°C° 0 mm 3 m/s 728 mmHg 75%

    Mâine, 17 Ianuarie, Joi

    Timp Temperatura Precipitaţii Vânt Presiune Umiditate
    00:00 -2°C° 0 mm 3 m/s 728 mmHg 74%
    01:00 -2°C° 0 mm 2 m/s 729 mmHg 74%
    02:00 -2°C° 0 mm 2 m/s 729 mmHg 74%
    03:00 -2°C° 0 mm 2 m/s 729 mmHg 75%
    04:00 0°C° 0 mm 1 m/s 730 mmHg 75%
    05:00 0°C° 0 mm 1 m/s 730 mmHg 75%
    06:00 0°C° 0 mm 1 m/s 731 mmHg 75%
    07:00 0°C° 0 mm 1 m/s 731 mmHg 75%
    08:00 -1°C° 0 mm 0 m/s 732 mmHg 74%
    09:00 -1°C° 0 mm 0 m/s 732 mmHg 74%
    10:00 0°C° 0 mm 0 m/s 733 mmHg 71%
    11:00 +1°C° 0 mm 1 m/s 733 mmHg 68%
    12:00 +2°C° 0 mm 1 m/s 733 mmHg 66%
    13:00 +2°C° 0 mm 1 m/s 733 mmHg 65%
    14:00 +2°C° 0 mm 1 m/s 733 mmHg 65%
    15:00 +2°C° 0 mm 1 m/s 734 mmHg 64%
    16:00 +1°C° 0 mm 1 m/s 734 mmHg 70%
    17:00 +1°C° 0 mm 1 m/s 735 mmHg 75%
    18:00 0°C° 0 mm 1 m/s 735 mmHg 80%
    19:00 0°C° 0 mm 1 m/s 736 mmHg 81%
    20:00 0°C° 0 mm 1 m/s 736 mmHg 81%
    21:00 0°C° 0 mm 1 m/s 736 mmHg 82%
    22:00 0°C° 0 mm 1 m/s 737 mmHg 79%
    23:00 -1°C° 0 mm 0 m/s 737 mmHg 77%

    Poimâine, 18 Ianuarie, Vineri

    Timp Temperatura Precipitaţii Vânt Presiune Umiditate
    00:00 -1°C° 0 mm 0 m/s 737 mmHg 74%
    01:00 -1°C° 0 mm 0 m/s 737 mmHg 72%
    02:00 -1°C° 0 mm 0 m/s 737 mmHg 69%
    03:00 0°C° 0 mm 1 m/s 738 mmHg 67%
    04:00 0°C° 0 mm 1 m/s 738 mmHg 64%
    05:00 0°C° 0 mm 1 m/s 738 mmHg 61%
    06:00 0°C° 0 mm 1 m/s 738 mmHg 58%
    07:00 +1°C° 0 mm 1 m/s 738 mmHg 54%
    08:00 +1°C° 0 mm 1 m/s 738 mmHg 51%
    09:00 +2°C° 0 mm 1 m/s 738 mmHg 47%
    10:00 +3°C° 0 mm 1 m/s 738 mmHg 44%
    11:00 +3°C° 0 mm 0 m/s 737 mmHg 41%
    12:00 +4°C° 0 mm 0 m/s 737 mmHg 38%
    13:00 +5°C° 0 mm 1 m/s 737 mmHg 41%
    14:00 +5°C° 0 mm 1 m/s 736 mmHg 43%
    15:00 +5°C° 0 mm 1 m/s 736 mmHg 46%
    16:00 +4°C° 0 mm 1 m/s 736 mmHg 51%
    17:00 +3°C° 0 mm 1 m/s 736 mmHg 56%
    18:00 -1°C° 0 mm 2 m/s 737 mmHg 61%
    19:00 +1°C° 0 mm 1 m/s 737 mmHg 60%
    20:00 +1°C° 0 mm 1 m/s 737 mmHg 59%
    21:00 +1°C° 0 mm 1 m/s 737 mmHg 58%
    22:00 +1°C° 0 mm 1 m/s 737 mmHg 55%
    23:00 +1°C° 0 mm 1 m/s 737 mmHg 52%

    19 Ianuarie, Sâmbătă

    Timp Temperatura Precipitaţii Vânt Presiune Umiditate
    00:00 +2°C° 0 mm 1 m/s 737 mmHg 49%
    01:00 +2°C° 0 mm 1 m/s 736 mmHg 47%
    02:00 +2°C° 0 mm 1 m/s 736 mmHg 44%
    03:00 +2°C° 0 mm 1 m/s 736 mmHg 41%
    04:00 +2°C° 0 mm 1 m/s 736 mmHg 39%
    05:00 +2°C° 0 mm 1 m/s 736 mmHg 37%
    06:00 +2°C° 0 mm 1 m/s 736 mmHg 36%
    07:00 +3°C° 0 mm 1 m/s 736 mmHg 34%
    08:00 +3°C° 0 mm 1 m/s 737 mmHg 33%
    09:00 +4°C° 0 mm 1 m/s 737 mmHg 32%
    10:00 +5°C° 0 mm 1 m/s 737 mmHg 31%
    11:00 +7°C° 0 mm 1 m/s 737 mmHg 29%
    12:00 +8°C° 0 mm 1 m/s 737 mmHg 28%
    13:00 +8°C° 0 mm 1 m/s 737 mmHg 34%
    14:00 +8°C° 0 mm 1 m/s 737 mmHg 39%
    15:00 +7°C° 0 mm 1 m/s 736 mmHg 45%
    16:00 +6°C° 0 mm 1 m/s 737 mmHg 50%
    17:00 +5°C° 0 mm 1 m/s 737 mmHg 56%
    18:00 +2°C° 0 mm 0 m/s 737 mmHg 61%
    19:00 +2°C° 0 mm 0 m/s 737 mmHg 62%
    20:00 +3°C° 0 mm 1 m/s 737 mmHg 62%
    21:00 +3°C° 0 mm 1 m/s 738 mmHg 63%
    22:00 +3°C° 0 mm 1 m/s 738 mmHg 61%
    23:00 +3°C° 0 mm 1 m/s 738 mmHg 60%

    20 Ianuarie, Duminică

    Timp Temperatura Precipitaţii Vânt Presiune Umiditate
    00:00 +3°C° 0 mm 1 m/s 738 mmHg 59%
    01:00 +2°C° 0 mm 1 m/s 738 mmHg 59%
    02:00 +1°C° 0 mm 0 m/s 738 mmHg 60%
    03:00 +1°C° 0 mm 0 m/s 738 mmHg 60%
    04:00 +1°C° 0 mm 0 m/s 738 mmHg 63%
    05:00 +2°C° 0 mm 1 m/s 738 mmHg 65%
    06:00 +2°C° 0 mm 1 m/s 738 mmHg 68%
    07:00 +2°C° 0 mm 1 m/s 738 mmHg 68%
    08:00 +2°C° 0 mm 1 m/s 738 mmHg 67%
    09:00 +2°C° 0 mm 2 m/s 738 mmHg 67%
    10:00 +3°C° 0 mm 2 m/s 738 mmHg 61%
    11:00 +4°C° 0 mm 2 m/s 738 mmHg 55%
    12:00 +5°C° 0 mm 2 m/s 738 mmHg 49%
    13:00 +5°C° 0 mm 2 m/s 737 mmHg 51%
    14:00 +5°C° 0 mm 2 m/s 737 mmHg 53%
    15:00 +5°C° 0 mm 2 m/s 737 mmHg 54%
    16:00 +4°C° 0 mm 2 m/s 737 mmHg 61%
    17:00 +3°C° 0 mm 2 m/s 737 mmHg 68%
    18:00 +2°C° 0 mm 2 m/s 737 mmHg 76%
    19:00 +2°C° 0 mm 2 m/s 737 mmHg 78%
    20:00 +1°C° 0 mm 2 m/s 737 mmHg 80%
    21:00 +1°C° 0 mm 2 m/s 737 mmHg 82%
    22:00 +1°C° 0 mm 2 m/s 737 mmHg 81%
    23:00 +1°C° 0 mm 2 m/s 737 mmHg 81%

    21 Ianuarie, Luni

    Timp Temperatura Precipitaţii Vânt Presiune Umiditate
    00:00 +1°C° 0 mm 1 m/s 737 mmHg 80%
    01:00 +1°C° 0 mm 1 m/s 737 mmHg 80%
    02:00 +1°C° 0 mm 1 m/s 737 mmHg 80%
    03:00 +1°C° 0 mm 1 m/s 736 mmHg 80%
    04:00 +1°C° 0 mm 1 m/s 736 mmHg 80%
    05:00 +1°C° 0 mm 1 m/s 736 mmHg 80%
    06:00 -1°C° 0 mm 2 m/s 736 mmHg 80%
    07:00 +1°C° 0 mm 1 m/s 736 mmHg 77%
    08:00 +2°C° 0 mm 1 m/s 735 mmHg 74%
    09:00 +2°C° 0 mm 1 m/s 735 mmHg 71%
    10:00 +4°C° 0 mm 1 m/s 735 mmHg 64%
    11:00 +5°C° 0 mm 1 m/s 734 mmHg 58%
    12:00 +6°C° 0 mm 1 m/s 734 mmHg 52%
    13:00 +6°C° 0 mm 1 m/s 733 mmHg 53%
    14:00 +6°C° 0 mm 2 m/s 733 mmHg 54%
    15:00 +6°C° 0 mm 2 m/s 733 mmHg 55%
    16:00 +5°C° 0 mm 2 m/s 733 mmHg 60%
    17:00 +4°C° 0 mm 1 m/s 733 mmHg 66%
    18:00 +3°C° 0 mm 1 m/s 733 mmHg 71%
    19:00 +3°C° 0 mm 1 m/s 733 mmHg 69%
    20:00 +3°C° 0 mm 1 m/s 733 mmHg 67%
    21:00 +3°C° 0 mm 1 m/s 733 mmHg 65%
    22:00 +3°C° 0 mm 1 m/s 733 mmHg 62%
    23:00 +4°C° 0 mm 1 m/s 732 mmHg 59%
    Arată mai mult